CHINASAT 2D

Last updated on Feb. 10, 2019, 12:02 a.m. UTC

1 43920U 19001A   19039.90454706 -.00000338  00000-0  00000-0 0  9991
2 43920   0.0394 189.7069 0001159 143.1740 261.4662  1.00271454   441
UTC
Height (km)
Latitude
Longitude
Inclination
Orbital Period
UTC large
Height (km)
Speed (km/s)
/
Latitude / Longitude
Inclination (degrees)
Orbital Period (minutes)
Azimuth
Elevation
Range (km)
Doppler Factor
iOS Compass Heading
iOS Angle

Next 30 passes for location: Hong Kong

Rise time Rise Azimuth (degrees) Set time Set Azimuth (degrees) Duration Max altitude (degrees)

No matching passes for this satellites